This demonstration page uses our WeatherBlox Daily Observations layout. Learn more.

Left ArrowRight Arrow

47.50024, -111.30081

Hourly Observations for July 28, 2020

Temp ( °F °C ) Dew Point ( °F °C ) Humidity (%) Winds ( mph kmh ) Pressure ( in mb ) Visibility ( mi km ) Precip ( " mm )
12:53 am 00:53 Clear 62 16.7 43 6.1 50 50 SSW 7 11 29.85 1011 10 16 0.00 0.00
1:53 am 01:53 Clear 64 17.8 45 7.2 50 50 Calm 29.85 1011 10 16 0.00 0.00
2:53 am 02:53 Clear 62 16.7 45 7.2 54 54 SW 3 6 29.84 1011 10 16 0.00 0.00
3:53 am 03:53 Clear 62 16.7 45 7.2 54 54 Calm 29.82 1010 10 16 0.00 0.00
4:53 am 04:53 Clear 62 16.7 44 6.7 52 52 Calm 29.82 1010 10 16 0.00 0.00
5:53 am 05:53 Clear 62 16.7 45 7.2 54 54 Calm 29.82 1010 10 16 0.00 0.00
6:53 am 06:53 Sunny 61 16.1 47 8.3 60 60 SSW 7 11 29.83 1010 10 16 0.00 0.00
7:53 am 07:53 Sunny 69 20.6 48 8.9 47 47 SW 7 11 29.82 1010 10 16 0.00 0.00
8:53 am 08:53 Sunny 76 24.4 48 8.9 37 37 SW 5 7 29.82 1010 10 16 0.00 0.00
9:53 am 09:53 Sunny 78 25.6 50 10 37 37 SW 9 15 29.82 1010 10 16 0.00 0.00
10:53 am 10:53 Sunny 82 27.8 50 10 33 33 SSW 12 19 29.82 1010 10 16 0.00 0.00
11:53 am 11:53 Sunny 84 28.9 48 8.9 29 29 SW 12 19 29.82 1010 10 16 0.00 0.00
12:53 pm 12:53 Sunny 91 32.8 44 6.7 20 20 WSW 10 17 29.81 1009 10 16 0.00 0.00
1:53 pm 13:53 Sunny 91 32.8 37 2.8 15 15 VRB 3 6 29.80 1009 10 16 0.00 0.00
2:53 pm 14:53 Sunny 90 32.2 40 4.4 17 17 SW 12 19 29.79 1009 10 16 0.00 0.00
3:53 pm 15:53 Sunny 89 31.7 43 6.1 20 20 WSW 8 13 29.78 1009 10 16 0.00 0.00
4:53 pm 16:53 Sunny 91 32.8 40 4.4 17 17 SSW 13 20 29.77 1008 10 16 0.00 0.00
6:53 pm 18:53 Sunny 90 32.2 39 3.9 17 17 S 10 17 29.75 1008 10 16 0.00 0.00
7:53 pm 19:53 Sunny 86 30 43 6.1 22 22 S 8 13 29.74 1007 10 16 0.00 0.00
8:53 pm 20:53 Sunny 72 22.2 47 8.3 41 41 WSW 9 15 29.77 1008 10 16 0.00 0.00
9:53 pm 21:53 Clear 75 23.9 47 8.3 37 37 S 9 15 29.78 1008 10 16 0.00 0.00
10:53 pm 22:53 Clear 71 21.7 47 8.3 42 42 SW 9 15 29.78 1008 10 16 0.00 0.00
11:53 pm 23:53 Clear 68 20 47 8.3 47 47 SW 7 11 29.80 1009 10 16 0.00 0.00

Powered by AerisWeather